Hourly Data Report for September 22, 2017

All times are specified in Local Standard Time (LST). Add 1 hour to adjust for Daylight Saving Time where and when it is observed.

BUCTOUCHE CDA CS
NEW BRUNSWICK

46°25'49.006" N
64°46'05.009" W
35.90 m
8100593
71666
ABT

Download Data

Hourly Data (September 2017)
Hourly Data Report for September 22, 2017
Temp Definition
°C
Dew Point Temp Definition
°C
Rel Hum Definition
%
Wind Dir Definition
10's deg

Wind Spd Definition
km/h
Visibility Definition
km
Stn Press Definition
kPa
Hmdx Definition


Wind Chill Definition


Weather Definition


TIME
00:00 5.5 4.5 93 14 5   101.83     LegendNANA
01:00 4.9 4.1 94 17 5   101.87     LegendNANA
02:00 4.4 3.7 95 22 3   101.86     LegendNANA
03:00 3.4 2.8 96 22 6   101.84     LegendNANA
04:00 3.9 3.3 96 22 2   101.82     LegendNANA
05:00 3.9 3.3 96 23 5   101.79     LegendNANA
06:00 3.8 3.3 96 22 6   101.82     LegendNANA
07:00 4.9 4.4 96 24 2   101.86     LegendNANA
08:00 8.3 7.8 97 23 3   101.88     LegendNANA
09:00 12.9 10.9 88 33 2   101.88     LegendNANA
10:00 15.8 11.4 75 5 3   101.85     LegendNANA
11:00 18.4 11.1 62 7 3   101.78     LegendNANA
12:00 18.8 11.5 63 35 8   101.71     LegendNANA
13:00 19.2 12.5 65 4 10   101.66     LegendNANA
14:00 19.4 11.3 59 8 9   101.63     LegendNANA
15:00 19.1 6.2 43 6 10   101.57     LegendNANA
16:00 18.9 5.2 41 10 8   101.53     LegendNANA
17:00 18.0 9.8 58 10 7   101.50     LegendNANA
18:00 15.3 10.5 73 14 8   101.47     LegendNANA
19:00 14.0 10.3 79 16 8   101.45     LegendNANA
20:00 12.5 9.3 81 16 8   101.40     LegendNANA
21:00 11.0 8.1 82 16 7   101.37     LegendNANA
22:00 10.8 6.4 75   0   101.37     LegendNANA
23:00 8.7 5.8 82 21 6   101.37     LegendNANA

Notes on Data Quality.

Legend

  • E = Estimated
  • M = Missing
  • NA = Not Available
  • ‡ = Partner data that is not subject to review by the National Climate Archives
Date modified: